SCP
0 0 0 -0 0 0 -0 -0 -0 -0 0 0 0 -0 0 -0 -0 -0 -0 -0 -0 -0 -0 -0 -0 -0 -0 -0 0 -0 -0 0 -0 0 -0 -0 -0 0 0 0 0 0 0
0 0 0 -0 -0 0 0 0 0 0 0 -0 0 0 -0 0 -0 -0 0 -0 -0 -0 -0 -0 -0 -0 -0 -0 -0 -0 0 0 0 -0 -0 0 0 0 0 0 0 0 0
-0 -0 0 0 0 -0 0 0 0 0 -0 0 0 -0 0 0 -0 -0 -0 -0 0 0 -0 -0 -0 -0 -0 -0 -0 -0 -0 0 0 0 0 0 0 0 0 0 0 0 0
0 -0 0 0 0 -0 0 0 -0 0 0 0 0 -0 -0 -0 0 0 0 0 0 -0 0 -0 -0 -0 -0 -0 -0 0 -0 0 0 0 0 0 0 -0 0 0 0 0 0
0 -0 0 -0 -0 0 0 0 0 0 0 0 0 0 0 0 0 0 0 0 0 -0 -0 0 0 -0 0 0 0 0 -0 0 -0 -0 -0 0 -0 -0 -0 -0 -0 0 0
0 0 -0 -0 -0 0 0 0 -0 0 0 0 0 0 0 0 0 0 0 0 -0 -0 -0 -0 -0 -0 0 0 0 0 -0 0 -0 -0 0 -0 -0 -0 -0 -0 -0 -0 0
-0 0 0 -0 -0 -0 -0 -0 -0 -0 0 0 0 0 0 -0 0 -0 -0 0 0 -0 -0 -0 0 0 0 0 0 0 0 0 0 -0 0 -0 -0 -0 -0 -0 -0 -0 0
0 0 0 -0 -0 -0 -0 -0 0 0 -0 -0 0 0 0 0 0 0 0 0 -0 -0 0 0 0 0 0 0 0 0 0 0 0 -0 -0 -0 0 -0 -0 -0 0 0 0
-0 0 0 0 0 -0 0 0 -0 -0 0 0 -0 0 0 0 0 0 0 0 0 -0 0 0 0 0 0 0 0 0 0 0 0 0 -0 -0 -0 -0 0 -0 -0 0 0
-0 0 -0 0 -0 0 0 0 -0 -0 0 -0 -0 0 0 0 0 0 0 0 0 -0 0 0 0 0 0 0 0 0 0 0 0 -0 -0 0 -0 -0 0 -0 0 0 0
0 -0 -0 -0 -0 -0 0 0 -0 -0 -0 -0 0 0 0 0 -0 0 0 0 0 0 0 0 0 0 0 0 0 0 0 0 -0 -0 0 -0 -0 -0 0 0 -0 0 0
0 0 0 -0 -0 0 0 -0 0 0 -0 -0 0 0 -0 0 0 0 -0 -0 0 0 0 0 0 0 0 0 0 0 -0 -0 -0 -0 0 0 0 0 -0 -0 -0 -0 -0
0 0 0 0 0 -0 -0 -0 0 -0 -0 -0 -0 -0 0 0 0 0 -0 -0 -0 0 0 0 0 0 0 0 0 -0 -0 -0 -0 -0 -0 -0 -0 0 0 -0 -0 -0 -0
0 0 0 -0 -0 -0 -0 -0 -0 0 -0 -0 -0 -0 -0 -0 -0 0 0 0 -0 -0 0 0 0 0 0 0 -0 -0 -0 -0 -0 -0 -0 -0 -0 -0 -0 0 0 -0 -0
0 0 -0 0 0 -0 0 -0 0 0 0 -0 -0 0 0 0 -0 -0 0 0 0 0 0 0 0 0 0 -0 -0 0 -0 -0 -0 -0 -0 -0 -0 -0 -0 -0 0 0 0
0 0 0 0 0 -0 -0 -0 0 0 0 0 0 0 0 0 0 0 0 -0 0 0 0 0 0 0 0 0 0 0 0 -0 -0 -0 -0 -0 -0 -0 -0 -0 -0 -0 0
0 0 0 0 -0 -0 -0 0 0 0 0 0 0 0 -0 0 0 0 0 0 0 0 0 0 0 0 0 0 0 0 0 0 0 -0 -0 -0 -0 -0 -0 0 0 0 0
0 0 0 0 0 -0 0 0 0 0 0 0 0 0 0 0 0 0 0 0 0 0 0 0 0 0 0 0 0 0 0 0 0 0 0 0 -0 0 0 0 0 0 0
0 0 0 0 0 0 0 0 0 0 0 0 0 -0 -0 0 0 0 0 0 0 0 0 0 0 0 0 0 0 0 0 0 0 0 0 0 0 0 0 0 0 0 0
0 0 0 0 0 0 0 0 0 0 0 0 0 0 0 0 0 0 0 0 0 0 0 0 0 0 0 0 0 0 0 0 0 0 0 0 0 0 0 0 0 0 0
0 0 0 0 0 0 0 0 0 0 0 0 0 0 0 0 0 0 0 0 0 0 0 0 0 0 0 0 0 0 0 0 0 0 0 0 0 0 0 0 0 0 0
0 0 0 0 0 0 0 0 0 0 0 0 0 0 0 0 0 0 0 0 0 0 0 0 0 0 0 0 0 0 0 0 0 0 0 0 0 0 0 0 0 0 0
0 0 0 1 0 0 0 0 0 0 0 0 0 0 0 0 0 0 0 0 0 0 0 0 0 0 0 0 0 0 0 0 0 0 0 0 0 0 0 0 0 0 0
0 0 0 0 0 0 0 0 0 0 0 0 0 0 0 0 0 0 0 0 0 0 0 0 0 0 0 0 0 0 0 0 0 0 0 0 0 0 0 0 0 0 0
0 0 0 0 0 0 0 0 0 0 0 0 0 0 0 0 0 0 0 0 0 0 0 0 0 0 0 0 0 0 0 0 0 0 0 0 0 0 0 0 0 0 0
0 0 0 0 0 0 0 0 0 0 0 0 0 0 0 0 0 0 0 0 0 0 0 0 0 0 0 0 0 0 0 0 0 0 0 0 0 0 0 0 0 0 0
Wind_Speed_500mb
5 9 7 2 11 20 9 10 21 16 10 3 6 14 18 15 22 18 6 11 13 12 10 4 2 5 10 15 19 23 25 30 32 35 37 38 41 40 39 37 36 34 32
4 2 4 3 20 6 9 11 6 14 9 5 10 9 12 13 11 10 15 14 16 13 9 4 7 7 3 7 13 21 25 26 26 27 28 35 38 39 40 39 37 35 32
7 5 1 2 13 12 16 6 17 25 14 4 5 8 8 12 11 13 16 19 20 18 12 8 8 14 10 3 3 6 16 19 28 32 31 28 32 36 39 40 39 36 34
12 8 4 10 10 12 14 18 1 12 19 8 8 13 11 15 21 27 17 25 19 16 17 12 10 14 16 9 4 6 8 11 15 21 30 33 30 29 35 38 38 38 36
12 22 11 5 10 12 13 14 4 13 13 10 8 8 12 14 14 17 18 24 15 19 18 12 5 13 15 14 6 6 9 10 13 18 24 31 33 33 31 35 35 37 38
14 15 17 13 7 9 10 7 11 8 13 7 7 8 10 13 8 7 11 5 19 16 20 16 7 7 10 18 13 4 4 8 11 16 20 27 32 31 34 32 31 34 36
3 14 19 18 16 15 13 6 13 11 9 12 10 9 7 1 6 6 7 15 17 15 15 14 9 4 5 17 19 13 7 7 4 9 16 22 29 31 34 33 31 33 37
13 13 21 23 17 13 10 11 10 6 3 8 9 19 12 3 7 16 12 17 17 19 13 7 14 7 6 11 21 18 9 8 1 6 12 17 21 26 29 30 32 35 35
9 10 11 14 19 15 14 14 9 5 5 9 10 12 4 4 12 8 9 10 17 19 12 16 11 5 3 9 18 19 13 6 5 4 9 14 17 20 23 26 32 33 33
10 14 10 13 18 11 10 12 9 3 6 6 15 11 13 3 8 13 12 14 15 17 16 9 6 1 3 5 14 16 16 9 7 6 8 10 14 15 15 17 28 32 31
12 12 11 11 14 17 9 10 12 5 7 3 10 11 4 3 15 9 15 16 23 16 14 8 7 8 4 4 10 14 17 15 11 7 12 11 14 15 15 20 25 29 32
18 16 15 10 7 13 18 10 7 6 5 1 3 5 5 1 4 5 10 15 15 18 20 16 10 9 6 4 3 13 13 15 14 11 12 15 16 16 18 22 23 26 28
21 23 17 11 10 16 11 13 6 4 8 8 7 4 4 1 3 5 8 12 11 18 16 17 17 12 6 4 6 12 9 10 12 11 12 15 16 15 16 20 22 23 24
24 20 26 18 15 14 8 21 12 8 14 13 9 14 13 7 3 4 2 5 6 16 12 18 17 14 14 7 7 8 3 4 5 8 8 10 14 18 19 17 19 20 21
28 21 24 28 28 19 14 13 11 10 10 9 8 8 9 12 9 1 4 9 5 12 15 17 15 16 17 14 9 4 3 3 1 4 6 6 6 8 11 16 20 21 21
39 34 34 32 33 27 21 18 20 17 15 14 10 9 13 7 11 8 6 9 4 5 7 15 19 15 20 13 7 7 7 7 4 3 5 6 7 9 11 11 12 13 16
38 32 32 32 33 33 24 25 22 21 17 20 21 18 12 10 3 8 9 8 7 5 2 9 5 19 17 5 9 13 14 12 8 5 5 7 9 9 10 12 15 17 18
41 40 32 30 37 33 33 33 28 24 12 16 10 14 14 9 9 13 12 10 9 9 6 7 11 18 17 12 9 15 16 19 17 10 9 10 12 12 14 15 17 17 18
43 40 36 35 36 33 27 30 27 24 16 17 23 18 16 12 13 14 14 17 19 14 12 9 14 20 22 18 16 14 13 17 18 13 9 11 13 13 14 16 18 21 22
52 43 37 47 43 40 33 30 32 27 24 20 21 23 17 19 19 19 21 21 20 22 18 15 15 19 22 20 17 22 28 28 24 11 9 5 9 13 13 13 14 13 14
46 42 42 40 42 39 39 36 35 33 29 22 25 25 23 23 25 26 24 23 21 18 21 19 23 25 28 27 25 27 26 29 43 24 18 14 8 11 16 15 14 13 11
50 47 50 47 43 43 38 35 35 33 29 23 26 30 27 29 31 28 24 22 20 18 17 18 19 19 22 23 24 26 26 32 32 30 28 21 15 14 13 14 14 14 14
53 56 53 46 46 44 42 37 35 36 33 34 28 26 27 29 26 21 20 19 20 19 19 18 20 22 22 22 23 26 29 30 38 36 34 32 26 20 15 12 9 10 13
65 57 57 48 45 47 42 39 35 38 36 38 36 33 31 27 25 21 18 17 16 18 18 16 16 16 18 19 21 24 27 33 42 38 40 30 18 16 13 12 12 10 7
58 59 61 50 45 45 46 41 40 44 41 43 41 36 28 26 27 23 18 16 12 12 12 12 11 10 12 15 18 20 22 35 41 39 37 33 28 23 19 13 7 5 7
57 63 67 52 46 43 47 44 45 46 48 46 40 34 31 27 29 26 22 20 14 12 12 12 14 13 13 13 12 10 9 10 14 29 32 31 28 20 13 16 12 9 9
Wind_Direction_500mb
92 42 341 62 2 58 25 278 309 232 290 131 192 154 147 176 189 211 210 207 179 192 191 168 315 303 262 243 236 234 229 225 231 231 229 225 226 225 224 222 221 221 222
232 135 256 309 29 348 306 337 347 312 202 71 86 132 179 211 181 249 216 187 163 167 145 106 59 34 342 270 250 238 231 229 226 223 221 221 226 225 224 222 221 220 219
237 225 193 341 23 341 326 343 68 28 4 290 138 137 129 207 213 234 226 212 168 161 152 135 74 55 36 352 281 235 226 227 229 227 225 222 223 222 221 221 220 219 217
233 242 325 355 3 327 329 347 288 16 354 265 160 141 157 182 184 222 224 208 214 165 159 150 85 54 35 18 315 268 252 250 243 232 226 223 221 215 215 215 217 218 217
241 217 211 310 335 336 334 348 18 25 359 128 144 194 192 183 224 247 235 230 217 186 168 154 118 40 31 19 357 280 254 258 255 245 232 218 216 213 208 208 212 215 215
227 224 224 248 283 281 285 283 340 352 23 41 240 167 180 186 236 63 34 141 151 166 163 167 90 1 20 18 19 354 274 281 263 235 225 213 209 208 207 208 212 213 212
275 246 236 247 257 240 247 280 293 308 353 47 133 168 178 316 218 177 122 172 172 143 150 138 161 195 332 10 20 25 356 336 252 212 207 206 204 205 208 215 215 209 208
279 250 233 244 248 246 252 267 270 324 43 347 57 114 121 76 193 129 134 158 142 153 147 155 167 186 272 17 28 29 19 13 127 179 187 199 204 209 213 216 213 208 206
251 232 218 270 250 254 253 266 243 231 124 17 39 62 92 129 146 129 113 136 152 146 153 167 173 194 223 13 31 30 26 24 65 135 171 185 198 203 204 212 208 204 202
223 214 243 302 237 261 240 226 213 217 98 41 54 55 24 6 99 131 148 170 168 165 159 164 202 99 65 6 24 26 32 24 45 111 125 140 154 174 189 197 192 194 198
198 219 243 286 258 236 195 216 221 203 157 72 18 32 340 110 130 125 154 166 181 174 170 168 234 222 161 43 26 27 33 31 40 86 119 128 144 154 163 168 169 178 184
212 237 231 274 270 226 196 196 216 171 126 254 318 31 73 60 234 178 168 170 182 184 192 215 226 227 207 15 9 26 31 33 46 77 113 130 135 143 159 167 173 180 187
223 229 233 219 224 235 219 207 215 235 218 221 235 248 98 122 250 302 200 185 179 195 205 217 230 231 230 253 310 350 21 31 43 72 111 126 135 142 154 163 171 182 190
243 232 231 227 235 212 200 203 214 199 209 210 210 243 245 238 196 127 290 186 235 197 184 206 213 218 239 267 307 316 344 34 66 64 95 123 141 149 154 160 169 179 188
240 244 238 236 240 211 199 211 217 241 221 206 242 232 200 181 226 96 131 158 262 208 220 215 203 221 225 259 302 270 268 341 114 124 104 109 136 145 163 171 174 181 187
238 250 243 230 226 212 202 227 233 263 268 253 244 219 201 194 211 204 231 209 206 279 239 220 214 242 220 239 258 251 249 266 260 197 172 168 163 170 179 184 186 190 192
236 229 228 232 222 211 219 226 240 266 263 248 242 219 190 164 173 214 239 205 211 272 271 205 228 201 224 237 277 247 245 233 226 226 222 216 210 209 205 199 202 207 214
229 231 235 225 215 214 221 233 248 249 257 233 221 187 183 215 242 278 273 258 257 261 237 205 186 172 197 208 253 259 256 242 219 209 218 226 228 224 227 228 224 223 222
234 228 235 229 221 220 224 238 244 244 273 230 214 218 219 232 256 268 268 265 255 254 245 232 194 189 210 224 223 255 272 291 258 221 232 239 242 241 239 234 233 233 232
229 234 239 233 237 238 235 238 242 250 254 230 221 235 235 239 252 263 278 264 256 253 247 244 210 210 218 208 245 275 250 253 262 247 263 232 249 250 245 236 231 230 230
224 225 241 245 236 233 232 233 235 239 240 242 237 247 249 257 262 267 272 261 253 258 244 245 231 219 217 241 263 281 255 250 220 238 226 232 225 263 244 231 222 227 233
229 230 236 242 241 240 234 231 230 228 236 239 245 252 257 259 267 270 266 257 257 254 247 237 229 232 240 247 252 255 235 221 218 220 228 232 232 234 233 220 211 216 219
237 237 235 240 240 242 237 233 231 223 236 243 248 251 261 266 265 261 260 252 243 242 237 237 246 255 257 252 250 244 241 248 241 242 231 231 230 214 190 201 219 200 174
232 236 233 238 237 240 240 235 237 233 227 236 247 257 265 255 251 249 245 238 239 240 240 237 243 250 254 250 235 237 244 240 238 238 234 223 221 216 193 205 215 196 203
234 234 236 230 233 241 244 242 238 236 234 237 248 254 251 241 243 241 229 223 232 231 233 243 246 254 255 240 241 239 239 241 229 226 226 223 217 211 204 200 206 206 181
235 218 227 227 227 244 247 241 234 229 238 239 241 244 238 232 228 231 234 233 231 223 218 242 259 258 253 232 210 208 203 211 224 220 224 228 240 220 208 205 182 168 145
Wind_Speed_850mb
5 9 7 2 11 20 9 10 21 16 10 3 6 14 18 15 22 18 6 11 13 12 10 4 2 5 10 15 19 23 25 30 32 35 37 38 41 40 39 37 36 34 32
4 2 4 3 20 6 9 11 6 14 9 5 10 9 12 13 11 10 15 14 16 13 9 4 7 7 3 7 13 21 25 26 26 27 28 35 38 39 40 39 37 35 32
7 5 1 2 13 12 16 6 17 25 14 4 5 8 8 12 11 13 16 19 20 18 12 8 8 14 10 3 3 6 16 19 28 32 31 28 32 36 39 40 39 36 34
12 8 4 10 10 12 14 18 1 12 19 8 8 13 11 15 21 27 17 25 19 16 17 12 10 14 16 9 4 6 8 11 15 21 30 33 30 29 35 38 38 38 36
12 22 11 5 10 12 13 14 4 13 13 10 8 8 12 14 14 17 18 24 15 19 18 12 5 13 15 14 6 6 9 10 13 18 24 31 33 33 31 35 35 37 38
14 15 17 13 7 9 10 7 11 8 13 7 7 8 10 13 8 7 11 5 19 16 20 16 7 7 10 18 13 4 4 8 11 16 20 27 32 31 34 32 31 34 36
3 14 19 18 16 15 13 6 13 11 9 12 10 9 7 1 6 6 7 15 17 15 15 14 9 4 5 17 19 13 7 7 4 9 16 22 29 31 34 33 31 33 37
13 13 21 23 17 13 10 11 10 6 3 8 9 19 12 3 7 16 12 17 17 19 13 7 14 7 6 11 21 18 9 8 1 6 12 17 21 26 29 30 32 35 35
9 10 11 14 19 15 14 14 9 5 5 9 10 12 4 4 12 8 9 10 17 19 12 16 11 5 3 9 18 19 13 6 5 4 9 14 17 20 23 26 32 33 33
10 14 10 13 18 11 10 12 9 3 6 6 15 11 13 3 8 13 12 14 15 17 16 9 6 1 3 5 14 16 16 9 7 6 8 10 14 15 15 17 28 32 31
12 12 11 11 14 17 9 10 12 5 7 3 10 11 4 3 15 9 15 16 23 16 14 8 7 8 4 4 10 14 17 15 11 7 12 11 14 15 15 20 25 29 32
18 16 15 10 7 13 18 10 7 6 5 1 3 5 5 1 4 5 10 15 15 18 20 16 10 9 6 4 3 13 13 15 14 11 12 15 16 16 18 22 23 26 28
21 23 17 11 10 16 11 13 6 4 8 8 7 4 4 1 3 5 8 12 11 18 16 17 17 12 6 4 6 12 9 10 12 11 12 15 16 15 16 20 22 23 24
24 20 26 18 15 14 8 21 12 8 14 13 9 14 13 7 3 4 2 5 6 16 12 18 17 14 14 7 7 8 3 4 5 8 8 10 14 18 19 17 19 20 21
28 21 24 28 28 19 14 13 11 10 10 9 8 8 9 12 9 1 4 9 5 12 15 17 15 16 17 14 9 4 3 3 1 4 6 6 6 8 11 16 20 21 21
39 34 34 32 33 27 21 18 20 17 15 14 10 9 13 7 11 8 6 9 4 5 7 15 19 15 20 13 7 7 7 7 4 3 5 6 7 9 11 11 12 13 16
38 32 32 32 33 33 24 25 22 21 17 20 21 18 12 10 3 8 9 8 7 5 2 9 5 19 17 5 9 13 14 12 8 5 5 7 9 9 10 12 15 17 18
41 40 32 30 37 33 33 33 28 24 12 16 10 14 14 9 9 13 12 10 9 9 6 7 11 18 17 12 9 15 16 19 17 10 9 10 12 12 14 15 17 17 18
43 40 36 35 36 33 27 30 27 24 16 17 23 18 16 12 13 14 14 17 19 14 12 9 14 20 22 18 16 14 13 17 18 13 9 11 13 13 14 16 18 21 22
52 43 37 47 43 40 33 30 32 27 24 20 21 23 17 19 19 19 21 21 20 22 18 15 15 19 22 20 17 22 28 28 24 11 9 5 9 13 13 13 14 13 14
46 42 42 40 42 39 39 36 35 33 29 22 25 25 23 23 25 26 24 23 21 18 21 19 23 25 28 27 25 27 26 29 43 24 18 14 8 11 16 15 14 13 11
50 47 50 47 43 43 38 35 35 33 29 23 26 30 27 29 31 28 24 22 20 18 17 18 19 19 22 23 24 26 26 32 32 30 28 21 15 14 13 14 14 14 14
53 56 53 46 46 44 42 37 35 36 33 34 28 26 27 29 26 21 20 19 20 19 19 18 20 22 22 22 23 26 29 30 38 36 34 32 26 20 15 12 9 10 13
65 57 57 48 45 47 42 39 35 38 36 38 36 33 31 27 25 21 18 17 16 18 18 16 16 16 18 19 21 24 27 33 42 38 40 30 18 16 13 12 12 10 7
58 59 61 50 45 45 46 41 40 44 41 43 41 36 28 26 27 23 18 16 12 12 12 12 11 10 12 15 18 20 22 35 41 39 37 33 28 23 19 13 7 5 7
57 63 67 52 46 43 47 44 45 46 48 46 40 34 31 27 29 26 22 20 14 12 12 12 14 13 13 13 12 10 9 10 14 29 32 31 28 20 13 16 12 9 9
Wind_Direction_850mb
92 42 341 62 2 58 25 278 309 232 290 131 192 154 147 176 189 211 210 207 179 192 191 168 315 303 262 243 236 234 229 225 231 231 229 225 226 225 224 222 221 221 222
232 135 256 309 29 348 306 337 347 312 202 71 86 132 179 211 181 249 216 187 163 167 145 106 59 34 342 270 250 238 231 229 226 223 221 221 226 225 224 222 221 220 219
237 225 193 341 23 341 326 343 68 28 4 290 138 137 129 207 213 234 226 212 168 161 152 135 74 55 36 352 281 235 226 227 229 227 225 222 223 222 221 221 220 219 217
233 242 325 355 3 327 329 347 288 16 354 265 160 141 157 182 184 222 224 208 214 165 159 150 85 54 35 18 315 268 252 250 243 232 226 223 221 215 215 215 217 218 217
241 217 211 310 335 336 334 348 18 25 359 128 144 194 192 183 224 247 235 230 217 186 168 154 118 40 31 19 357 280 254 258 255 245 232 218 216 213 208 208 212 215 215
227 224 224 248 283 281 285 283 340 352 23 41 240 167 180 186 236 63 34 141 151 166 163 167 90 1 20 18 19 354 274 281 263 235 225 213 209 208 207 208 212 213 212
275 246 236 247 257 240 247 280 293 308 353 47 133 168 178 316 218 177 122 172 172 143 150 138 161 195 332 10 20 25 356 336 252 212 207 206 204 205 208 215 215 209 208
279 250 233 244 248 246 252 267 270 324 43 347 57 114 121 76 193 129 134 158 142 153 147 155 167 186 272 17 28 29 19 13 127 179 187 199 204 209 213 216 213 208 206
251 232 218 270 250 254 253 266 243 231 124 17 39 62 92 129 146 129 113 136 152 146 153 167 173 194 223 13 31 30 26 24 65 135 171 185 198 203 204 212 208 204 202
223 214 243 302 237 261 240 226 213 217 98 41 54 55 24 6 99 131 148 170 168 165 159 164 202 99 65 6 24 26 32 24 45 111 125 140 154 174 189 197 192 194 198
198 219 243 286 258 236 195 216 221 203 157 72 18 32 340 110 130 125 154 166 181 174 170 168 234 222 161 43 26 27 33 31 40 86 119 128 144 154 163 168 169 178 184
212 237 231 274 270 226 196 196 216 171 126 254 318 31 73 60 234 178 168 170 182 184 192 215 226 227 207 15 9 26 31 33 46 77 113 130 135 143 159 167 173 180 187
223 229 233 219 224 235 219 207 215 235 218 221 235 248 98 122 250 302 200 185 179 195 205 217 230 231 230 253 310 350 21 31 43 72 111 126 135 142 154 163 171 182 190
243 232 231 227 235 212 200 203 214 199 209 210 210 243 245 238 196 127 290 186 235 197 184 206 213 218 239 267 307 316 344 34 66 64 95 123 141 149 154 160 169 179 188
240 244 238 236 240 211 199 211 217 241 221 206 242 232 200 181 226 96 131 158 262 208 220 215 203 221 225 259 302 270 268 341 114 124 104 109 136 145 163 171 174 181 187
238 250 243 230 226 212 202 227 233 263 268 253 244 219 201 194 211 204 231 209 206 279 239 220 214 242 220 239 258 251 249 266 260 197 172 168 163 170 179 184 186 190 192
236 229 228 232 222 211 219 226 240 266 263 248 242 219 190 164 173 214 239 205 211 272 271 205 228 201 224 237 277 247 245 233 226 226 222 216 210 209 205 199 202 207 214
229 231 235 225 215 214 221 233 248 249 257 233 221 187 183 215 242 278 273 258 257 261 237 205 186 172 197 208 253 259 256 242 219 209 218 226 228 224 227 228 224 223 222
234 228 235 229 221 220 224 238 244 244 273 230 214 218 219 232 256 268 268 265 255 254 245 232 194 189 210 224 223 255 272 291 258 221 232 239 242 241 239 234 233 233 232
229 234 239 233 237 238 235 238 242 250 254 230 221 235 235 239 252 263 278 264 256 253 247 244 210 210 218 208 245 275 250 253 262 247 263 232 249 250 245 236 231 230 230
224 225 241 245 236 233 232 233 235 239 240 242 237 247 249 257 262 267 272 261 253 258 244 245 231 219 217 241 263 281 255 250 220 238 226 232 225 263 244 231 222 227 233
229 230 236 242 241 240 234 231 230 228 236 239 245 252 257 259 267 270 266 257 257 254 247 237 229 232 240 247 252 255 235 221 218 220 228 232 232 234 233 220 211 216 219
237 237 235 240 240 242 237 233 231 223 236 243 248 251 261 266 265 261 260 252 243 242 237 237 246 255 257 252 250 244 241 248 241 242 231 231 230 214 190 201 219 200 174
232 236 233 238 237 240 240 235 237 233 227 236 247 257 265 255 251 249 245 238 239 240 240 237 243 250 254 250 235 237 244 240 238 238 234 223 221 216 193 205 215 196 203
234 234 236 230 233 241 244 242 238 236 234 237 248 254 251 241 243 241 229 223 232 231 233 243 246 254 255 240 241 239 239 241 229 226 226 223 217 211 204 200 206 206 181
235 218 227 227 227 244 247 241 234 229 238 239 241 244 238 232 228 231 234 233 231 223 218 242 259 258 253 232 210 208 203 211 224 220 224 228 240 220 208 205 182 168 145